Location: Fluertsh�userhof
(48.7537°N, 10.3850°E)
Time: 22:39:19
(UTC+00:00)

Meteor 1-21 - Pass Details

Date: 18 September 2020
Orbit: 845 x 887 km, 81.2° (Epoch: 30 October)

Event Time Altitude Azimuth Distance (km) Brightness Sun altitude
Rises 18:12:40 0° 347° (NNW) 3,433 7.7 -8.7°
Reaches altitude 10° 18:15:06 10° 348° (NNW) 2,489 7.0 -9.1°
Maximum altitude 18:20:45 87° 261° (W) 855 4.3 -10.0°
Drops below altitude 10° 18:26:20 10° 171° (S) 2,462 6.4 -10.9°
Sets 18:28:44 0° 172° (S) 3,393 7.1 -11.3°
